Orbital Elements at Epoch 2459000.5 (2020-May-31.0) TDB
Reference: JPL 9 (heliocentric ecliptic J2000)
Element | Value | Uncertainty (1-sigma) | Units |
e | .1781621304058923 | 7.8656e-08 | |
a | 2.573417067969383 | 2.4356e-08 | au |
q | 2.114931600717072 | 2.0558e-07 | au |
i | 14.83027237149146 | 8.9054e-06 | deg |
node | 20.67056763693063 | 2.4712e-05 | deg |
peri | 336.5349550052678 | 3.3449e-05 | deg |
M | 24.25569255991283 | 3.0867e-05 | deg |
tp | 2458898.904406669477 (2020-Feb-19.40440667) | 0.00012813 | TDB |
period | 1507.869276816053 4.13 | 2.1406e-05 5.861e-08 | d yr |
n | .2387474866257368 | 3.3894e-09 | deg/d |
Q | 3.031902535221693 | 2.8695e-08 | au |
|
| | Orbit Determination Parameters
Additional Information
|